SB KEPS @ AMSAT $ORB12145.O Orbital Elements 12145.OSCAR
HR AMSAT ORBITAL ELEMENTS FOR OSCAR SATELLITES FROM WA5QGD FORT WORTH,TX May 24, 2012 Send SUBSCRIBE KEPS/UNSUBSCRIBE KEPS to majordomo@amsat.org only BID: ORB12145.O TO ALL RADIO AMATEURS BT
Satellite: AO-07 Catalog number: 07530 Epoch time: 12145.60270216 Element set: 387 Inclination: 101.4013 deg RA of node: 143.7249 deg Eccentricity: 0.0011918 Arg of perigee: 330.2111 deg Mean anomaly: 029.8287 deg Mean motion: 12.53589457 rev/day Decay rate: -2.7e-07 rev/day^2 Epoch rev: 71709 Checksum: 278
Satellite: FO-29 Catalog number: 24278 Epoch time: 12144.93050638 Element set: 0860 Inclination: 098.5853 deg RA of node: 248.7609 deg Eccentricity: 0.0351346 Arg of perigee: 092.1414 deg Mean anomaly: 271.9992 deg Mean motion: 13.52983633 rev/day Decay rate: 8.0e-08 rev/day^2 Epoch rev: 77867 Checksum: 348
Satellite: SO-33 Catalog number: 25509 Epoch time: 12144.32491737 Element set: 238 Inclination: 031.4326 deg RA of node: 114.3795 deg Eccentricity: 0.0352417 Arg of perigee: 345.6877 deg Mean anomaly: 013.3969 deg Mean motion: 14.28745313 rev/day Decay rate: 7.20e-06 rev/day^2 Epoch rev: 70909 Checksum: 312
Satellite: RS-22 Catalog number: 27939 Epoch time: 12145.69134226 Element set: 384 Inclination: 097.8134 deg RA of node: 347.7119 deg Eccentricity: 0.0013146 Arg of perigee: 344.9974 deg Mean anomaly: 015.0836 deg Mean motion: 14.64017415 rev/day Decay rate: 6.46e-06 rev/day^2 Epoch rev: 46244 Checksum: 316
Satellite: VO-52 Catalog number: 28650 Epoch time: 12144.76419574 Element set: 0110 Inclination: 097.5979 deg RA of node: 176.9113 deg Eccentricity: 0.0027624 Arg of perigee: 119.8052 deg Mean anomaly: 240.5914 deg Mean motion: 14.82918727 rev/day Decay rate: 1.002e-05 rev/day^2 Epoch rev: 38135 Checksum: 312
Satellite: HO-68 Catalog number: 36122 Epoch time: 12145.80519324 Element set: 491 Inclination: 100.3629 deg RA of node: 205.6214 deg Eccentricity: 0.0007518 Arg of perigee: 159.9755 deg Mean anomaly: 200.1654 deg Mean motion: 13.16295643 rev/day Decay rate: -4.4e-07 rev/day^2 Epoch rev: 11731 Checksum: 281
/EX SB KEPS @ AMSAT $ORB12145.D Orbital Elements 12145.MICROS
HR AMSAT ORBITAL ELEMENTS FOR THE MICROSATS FROM WA5QGD FORT WORTH,TX May 24, 2012 Send SUBSCRIBE KEPS/UNSUBSCRIBE KEPS to majordomo@amsat.org only BID: ORB12145.D TO ALL RADIO AMATEURS BT
Satellite: UO-11 Catalog number: 14781 Epoch time: 12144.85672526 Element set: 0881 Inclination: 097.9557 deg RA of node: 204.5876 deg Eccentricity: 0.0010062 Arg of perigee: 109.6820 deg Mean anomaly: 250.5480 deg Mean motion: 14.80433776 rev/day Decay rate: 6.01e-06 rev/day^2 Epoch rev: 51633 Checksum: 304
Satellite: AO-16 Catalog number: 20439 Epoch time: 12144.84258453 Element set: 0488 Inclination: 098.4278 deg RA of node: 088.9008 deg Eccentricity: 0.0010010 Arg of perigee: 229.1109 deg Mean anomaly: 130.9206 deg Mean motion: 14.32051388 rev/day Decay rate: 1.38e-06 rev/day^2 Epoch rev: 16651 Checksum: 290
Satellite: LO-19 Catalog number: 20442 Epoch time: 12144.86927996 Element set: 398 Inclination: 098.3951 deg RA of node: 092.0184 deg Eccentricity: 0.0010999 Arg of perigee: 220.2175 deg Mean anomaly: 139.8189 deg Mean motion: 14.32269977 rev/day Decay rate: 1.16e-06 rev/day^2 Epoch rev: 16670 Checksum: 343
Satellite: AO-27 Catalog number: 22825 Epoch time: 12144.88719701 Element set: 0124 Inclination: 098.5728 deg RA of node: 088.0821 deg Eccentricity: 0.0008484 Arg of perigee: 357.6852 deg Mean anomaly: 002.4284 deg Mean motion: 14.29458408 rev/day Decay rate: 1.30e-06 rev/day^2 Epoch rev: 97300 Checksum: 312
Satellite: IO-26 Catalog number: 22826 Epoch time: 12144.96271068 Element set: 0860 Inclination: 098.5682 deg RA of node: 088.5332 deg Eccentricity: 0.0008907 Arg of perigee: 351.1556 deg Mean anomaly: 008.9469 deg Mean motion: 14.29732031 rev/day Decay rate: 1.09e-06 rev/day^2 Epoch rev: 97314 Checksum: 322
Satellite: GO-32 Catalog number: 25397 Epoch time: 12145.63603584 Element set: 782 Inclination: 098.3606 deg RA of node: 125.5067 deg Eccentricity: 0.0001579 Arg of perigee: 032.7883 deg Mean anomaly: 327.3405 deg Mean motion: 14.23275170 rev/day Decay rate: 7.7e-07 rev/day^2 Epoch rev: 72067 Checksum: 310
Satellite: NO-44 Catalog number: 26931 Epoch time: 12144.55833260 Element set: 0048 Inclination: 067.0506 deg RA of node: 183.8165 deg Eccentricity: 0.0007671 Arg of perigee: 268.3505 deg Mean anomaly: 091.6735 deg Mean motion: 14.29795967 rev/day Decay rate: 1.52e-06 rev/day^2 Epoch rev: 55572 Checksum: 323
Satellite: SO-50 Catalog number: 27607 Epoch time: 12144.71845408 Element set: 0769 Inclination: 064.5590 deg RA of node: 009.3332 deg Eccentricity: 0.0083709 Arg of perigee: 253.4513 deg Mean anomaly: 105.7346 deg Mean motion: 14.72365907 rev/day Decay rate: 4.02e-06 rev/day^2 Epoch rev: 50636 Checksum: 303
Satellite: CO-55 Catalog number: 27844 Epoch time: 12144.55932337 Element set: 0380 Inclination: 098.7024 deg RA of node: 153.2957 deg Eccentricity: 0.0009142 Arg of perigee: 298.4486 deg Mean anomaly: 061.5791 deg Mean motion: 14.21017019 rev/day Decay rate: 2.71e-06 rev/day^2 Epoch rev: 46139 Checksum: 312
Satellite: CO-57 Catalog number: 27848 Epoch time: 12144.55866976 Element set: 330 Inclination: 098.7096 deg RA of node: 152.6171 deg Eccentricity: 0.0009135 Arg of perigee: 305.2981 deg Mean anomaly: 054.7357 deg Mean motion: 14.20769215 rev/day Decay rate: 2.26e-06 rev/day^2 Epoch rev: 46133 Checksum: 324
Satellite: AO-51 Catalog number: 28375 Epoch time: 12144.77656846 Element set: 272 Inclination: 098.1455 deg RA of node: 111.1919 deg Eccentricity: 0.0084274 Arg of perigee: 114.3087 deg Mean anomaly: 246.6931 deg Mean motion: 14.40941251 rev/day Decay rate: 1.52e-06 rev/day^2 Epoch rev: 41525 Checksum: 304
Satellite: CP3 Catalog number: 31129 Epoch time: 12145.60090934 Element set: 172 Inclination: 097.8769 deg RA of node: 154.7627 deg Eccentricity: 0.0100866 Arg of perigee: 195.8413 deg Mean anomaly: 163.9624 deg Mean motion: 14.53047488 rev/day Decay rate: 5.36e-06 rev/day^2 Epoch rev: 27055 Checksum: 320
Satellite: CO-65 Catalog number: 32785 Epoch time: 12144.81905435 Element set: 0319 Inclination: 097.8004 deg RA of node: 206.4446 deg Eccentricity: 0.0015304 Arg of perigee: 138.0642 deg Mean anomaly: 222.1728 deg Mean motion: 14.82936570 rev/day Decay rate: 1.792e-05 rev/day^2 Epoch rev: 22015 Checksum: 294
Satellite: PRISM Catalog number: 33493 Epoch time: 12145.72629964 Element set: 723 Inclination: 098.1676 deg RA of node: 285.7365 deg Eccentricity: 0.0019128 Arg of perigee: 017.4114 deg Mean anomaly: 342.7757 deg Mean motion: 14.83791062 rev/day Decay rate: 2.990e-05 rev/day^2 Epoch rev: 18027 Checksum: 326
Satellite: SOHLA-1 Catalog number: 33496 Epoch time: 12144.87185370 Element set: 0747 Inclination: 098.1025 deg RA of node: 256.7717 deg Eccentricity: 0.0007536 Arg of perigee: 114.6717 deg Mean anomaly: 245.5272 deg Mean motion: 14.69956737 rev/day Decay rate: 4.22e-06 rev/day^2 Epoch rev: 17867 Checksum: 334
Satellite: SO-67 Catalog number: 35870 Epoch time: 12145.87305713 Element set: 984 Inclination: 097.2336 deg RA of node: 182.4396 deg Eccentricity: 0.0000485 Arg of perigee: 203.0007 deg Mean anomaly: 278.4975 deg Mean motion: 15.23643833 rev/day Decay rate: 4.794e-05 rev/day^2 Epoch rev: 14906 Checksum: 329
Satellite: TISAT-1 Catalog number: 36799 Epoch time: 12145.77600591 Element set: 2 Inclination: 098.0629 deg RA of node: 221.9389 deg Eccentricity: 0.0013566 Arg of perigee: 246.5747 deg Mean anomaly: 113.4045 deg Mean motion: 14.81881795 rev/day Decay rate: 1.998e-05 rev/day^2 Epoch rev: 10102 Checksum: 319
Satellite: STUDSAT Catalog number: 36801 Epoch time: 12144.80164906 Element set: 400 Inclination: 098.0699 deg RA of node: 221.5647 deg Eccentricity: 0.0011795 Arg of perigee: 235.4740 deg Mean anomaly: 124.5361 deg Mean motion: 14.84082812 rev/day Decay rate: 5.352e-05 rev/day^2 Epoch rev: 10090 Checksum: 277
Satellite: FO-69 Catalog number: 37227 Epoch time: 12144.25127398 Element set: 0189 Inclination: 071.9720 deg RA of node: 006.9858 deg Eccentricity: 0.0015333 Arg of perigee: 001.4312 deg Mean anomaly: 358.6880 deg Mean motion: 14.77054072 rev/day Decay rate: 1.50e-06 rev/day^2 Epoch rev: 03241 Checksum: 292
Satellite: FO-70 Catalog number: 37380 Epoch time: 12144.25263987 Element set: 0191 Inclination: 071.9717 deg RA of node: 007.5118 deg Eccentricity: 0.0018776 Arg of perigee: 358.4415 deg Mean anomaly: 001.6742 deg Mean motion: 14.76813663 rev/day Decay rate: 1.465e-05 rev/day^2 Epoch rev: 03230 Checksum: 304
Satellite: ALMASAT-1 Catalog number: 38078 Epoch time: 12145.75921682 Element set: 238 Inclination: 069.4968 deg RA of node: 010.3071 deg Eccentricity: 0.0762356 Arg of perigee: 277.9028 deg Mean anomaly: 073.6348 deg Mean motion: 14.08641625 rev/day Decay rate: 1.3599e-04 rev/day^2 Epoch rev: 1425 Checksum: 326
Satellite: XATCOBEO Catalog number: 38082 Epoch time: 12145.86846059 Element set: 262 Inclination: 069.4917 deg RA of node: 008.7654 deg Eccentricity: 0.0743934 Arg of perigee: 277.0998 deg Mean anomaly: 074.6142 deg Mean motion: 14.14807567 rev/day Decay rate: 3.1266e-04 rev/day^2 Epoch rev: 1429 Checksum: 336
/EX SB KEPS @ AMSAT $ORB12145.W Orbital Elements 12145.WEATHER
HR AMSAT ORBITAL ELEMENTS FOR WEATHER SATELLITES FROM WA5QGD FORT WORTH,TX May 24, 2012 Send SUBSCRIBE KEPS/UNSUBSCRIBE KEPS to majordomo@amsat.org only BID: ORB12145.W TO ALL RADIO AMATEURS BT
Satellite: NOAA-10 Catalog number: 16969 Epoch time: 12144.97928268 Element set: 0941 Inclination: 098.5846 deg RA of node: 174.4610 deg Eccentricity: 0.0011659 Arg of perigee: 309.3090 deg Mean anomaly: 050.7056 deg Mean motion: 14.27551967 rev/day Decay rate: 1.30e-06 rev/day^2 Epoch rev: 33641 Checksum: 319
